Location: Unspecified
(38.9820°N, 0.0000°E)
Time: 11:13:23
(UTC+00:00)

N. Korean satellite - Visible Passes

Search period start: 15 October 2019 00:00
Search period end: 25 October 2019 00:00
Orbit: 455 x 508 km, 97.2° (Epoch: 14 October)

Date Brightness Start Highest point End Pass type
(mag) Time Alt. Az. Time Alt. Az. Time Alt. Az.
15 Oct 8.8 05:24:12 10° NNE 05:27:26 31° E 05:30:41 10° SSE visible
16 Oct 10.0 04:59:51 10° NE 05:02:01 15° E 05:04:13 10° SE visible
17 Oct 10.4 18:16:47 10° WSW 18:17:53 11° W 18:18:59 10° WNW visible
18 Oct 7.5 05:41:26 10° NNE 05:45:00 55° E 05:48:34 10° S visible
18 Oct 9.3 17:49:37 10° SSW 17:52:25 24° W 17:55:15 10° NW visible
19 Oct 9.2 05:16:35 10° NE 05:19:38 25° E 05:22:42 10° SSE visible
20 Oct 10.3 04:52:36 10° ENE 04:54:11 12° E 04:55:47 10° ESE visible
21 Oct 10.1 18:08:05 10° SW 18:10:00 14° W 18:11:55 10° WNW visible
22 Oct 8.0 05:33:41 10° NNE 05:37:10 43° E 05:40:41 10° S visible
22 Oct 8.8 17:41:30 10° SSW 17:44:33 30° W 17:47:38 10° NNW visible
23 Oct 9.6 05:08:58 10° NE 05:11:47 21° E 05:14:36 10° SE visible
